Tracking 31027 objects as of 19-Jul-2025
HD Live streaming from Space Station
objects crossing your sky now

STARLINK-4287

Track STARLINK-4287 now!
10-day predictions
STARLINK-4287 is classified as:


NORAD ID: 53020
Int'l Code: 2022-076AL
Perigee: 546.0 km
Apogee: 547.7 km
Inclination: 53.2 °
Period: 95.4 minutes
Semi major axis: 6917 km
RCS: Unknown
Launch date: July 7, 2022
Source: United States (US)
Launch site: AIR FORCE EASTERN TEST RANGE (AFETR)
Your satellite tracking list
FENGYUN 1C DEB
Track 1 satellite(s)




NASA's NSSDC Master Catalog

Two Line Element Set (TLE):
1 53020U 22076AL  25199.33294820  .00002276  00000-0  16107-3 0  9999
2 53020  53.2175  56.1901 0001219  91.3657 268.7475 15.08838304167600
Source of the keplerian elements: AFSPC